Starlink 30101

operational
NORAD ID: 56301 Int'l Des: 2023-056 Owner: SPXS Country: US Constellation: starlink
LEOCIRCULAR

Über Starlink 30101

Beschreibung wird geladen...

Live-Position

3D-Globus wird geladen...

Nächste Überflüge

Höhenverlauf

Altitude vs Time

uPlot chart will show altitude changes over time

Zweizeiliger Elementsatz

1 56301U 23056R 25351.18890585 .00000613 00000-0 60427-4 0 9994
2 56301 43.0048 298.5556 0000984 278.9683 81.1048 15.02540083147675
Epoch: 17. Dez. 2025 • Age: 14 hours

Aktueller Status

Höhe 571.4 km
Geschwindigkeit 7.58 km/s
Subsatellitenpunkt -42.16°S, 172.97°W
Startdatum 19. Apr. 2023
Alter 2.6 years
Typ internet

Technische Details

Klassifizierung Payload
Masse 730.00 kg
Trockenmasse 700.00 kg
Gesamtmasse 730.00 kg
Länge 0.30 m
Durchmesser 4.10 m
Spannweite 29.00 m
Form Box + pan
Hersteller SPXS
Bus-Typ Starlink V2M
Phasenstatus In Orbit
Besitzer/Staat SPXS/US

Große Konstellationen

Loading constellations...